Regional Weather Roundup
Issued by NWS

Home | Current Version | Previous Version | Graphics & Text | Print | Product List | Glossary On
Versions: 1 2 3 4 5 6 7 8 9 10 11 12 13 14 15 16 17 18 19 20 21 22 23 24 25 26 27 28 29 30 31 32 33 34 35 36 37 38 39 40 41 42 43 44 45 46 47 48 49 50
000
ASUS43 KDTX 011910
RWRMI
MICHIGAN HOURLY REGIONAL WEATHER ROUNDUP
NATIONAL WEATHER SERVICE DETROIT/PONTIAC MI
300 PM EDT WED APR 01 2015

NOTE: "FAIR" INDICATES FEW OR NO CLOUDS BELOW 12,000 FEET WITH NO
SIGNIFICANT WEATHER AND/OR OBSTRUCTION TO VISIBILITY.

MIZ047>049-052>055-059>063-066>070-074>076-081>083-012000-
SOUTHEAST LOWER MICHIGAN

CITY           SKY/WX    TMP DP  RH WIND       PRES   REMARKS
ADRIAN         SUNNY     62  35  36 VRB6      30.06F
ALMA           SUNNY     56  33  42 CALM      30.07F
ANN ARBOR      SUNNY     61  34  36 VRB3      30.06F
BAD AXE        MOSUNNY   48  31  50 SW5       30.10F
CARO           SUNNY     53  33  45 S6        30.08F
DETROIT CITY   SUNNY     53  36  52 E8        30.11F
DETROIT        MOSUNNY   60  36  40 S7        30.09F
FLINT          SUNNY     58  32  37 VRB3      30.08F
GROSSE ILE     SUNNY     52  37  58 SE7       30.09F
HILLSDALE      SUNNY     63  33  32 NW10      30.06F
HOWELL         SUNNY     58  33  37 W5        30.06F

CITY           SKY/WX    TMP DP  RH WIND       PRES   REMARKS
JACKSON        SUNNY     63  34  33 MISG      30.05F
LAMBERTVILLE   SUNNY     61  37  41 W7        30.07F
LANSING        SUNNY     60  32  34 W7        30.06F
LAPEER         FAIR      49  34  56 SE3       30.10F
MASON          SUNNY     60  32  34 W6        30.06F
MONROE         MOSUNNY   55  39  54 E9        30.07F
MT. CLEMENS    SUNNY     46  36  68 E9        30.09F
PONTIAC        MOSUNNY   57  28  33 W8        30.07F
PORT HOPE        N/A     35  29  78 E16       30.09F WCI  25
PORT HURON     MOSUNNY   48  37  66 S9        30.11F HAZE
TRI CITIES     SUNNY     53  33  46 SW6       30.08F
TROY           SUNNY     54  35  48 E7        30.10F
SAGINAW HB     SUNNY     54  32  43 S7        30.07F
$$
MIZ043>046-050>051-056>058-064>065-071>073-077>080-012000-
SOUTHWEST LOWER MICHIGAN

CITY           SKY/WX    TMP DP  RH WIND       PRES   REMARKS
BATTLE CREEK   SUNNY     63  34  33 W14       30.05F
BENTON HARBOR  SUNNY     65  36  34 SE5       30.01F
BIG RAPIDS     PTSUNNY   57  31  37 S7        30.02F
COLDWATER      SUNNY     63  32  31 W10       30.05F
FREMONT        FAIR      59  29  31 SW5       30.02F
HOLLAND        SUNNY     62  37  39 SW7       30.04F
GRAND RAPIDS   MOSUNNY   63  37  38 SW9       30.04F
IONIA          FAIR      59  35  40 CALM      30.04F
KALAMAZOO      SUNNY     63  37  38 SW14      30.05F
LUDINGTON      SUNNY     56  35  46 W6        30.02F
MARSHALL       SUNNY     64  35  34 SW9       30.04F
MOUNT PLEASANT SUNNY     53  33  47 SE3       30.05F
MUSKEGON       MOSUNNY   60  33  36 S10       30.02F
SOUTH HAVEN    SUNNY     66  32  28 W8        30.02F
$$
MIZ016>042-012000-
NORTHERN LOWER MICHIGAN

CITY           SKY/WX    TMP DP  RH WIND       PRES   REMARKS
ALPENA         SUNNY     45  25  45 E13       30.07F
BEAVER ISLAND  CLOUDY    44  32  62 S6        30.02F
BELLAIRE       PTSUNNY   53  28  38 SW5       30.02F
CADILLAC       CLOUDY    55  30  38 S9        30.02F
CHARLEVOIX     PTSUNNY   45  32  60 SW5       30.05F
FRANKFORT      PTSUNNY   53  29  40 W7        30.00F
GAYLORD        PTSUNNY   48  28  46 S8        30.02F
GRAYLING       MOSUNNY   52  28  40 SE8       30.03F
HARBOR SPRINGS PTSUNNY   40  31  72 CALM      30.04F
HOUGHTON LAKE  SUNNY     52  28  39 VRB6      30.04F
MANISTEE       MOSUNNY   55  28  35 S9        30.02F
OSCODA         SUNNY     48  28  47 E12       30.08F
PELLSTON       PTSUNNY   51  30  44 SW9       30.03F
ROGERS CITY    SUNNY     50  32  49 S10       30.05F
TRAVERSE CITY  PTSUNNY   55  29  36 SW7       30.01F
$$
MIZ007>008-015-012000-
EASTERN UPPER MICHIGAN

CITY           SKY/WX    TMP DP  RH WIND       PRES   REMARKS
KINROSS        MOSUNNY   45  30  57 S10G16    30.03F
MACKINAC ISLAN MOSUNNY   36  30  78 E9        30.05S WCI  29
NEWBERRY       CLOUDY    37  30  75 S10G16    30.01F WCI  30
S. S. MARIE    FAIR      41  28  60 SE12      30.03F
MUNISING         N/A    N/A N/A N/A S12G22    29.93F
$$
MIZ004>006-011>014-085-012000-
CENTRAL UPPER MICHIGAN

CITY           SKY/WX    TMP DP  RH WIND       PRES   REMARKS
MANISTIQUE     CLOUDY    34  31  89 SE9       30.00F WCI  27
ESCANABA       CLOUDY    36  30  80 SE10      29.97F WCI  28
MENOMINEE      MOSUNNY   41  30  65 SE12      29.95F
SAWYER-GWINN   CLOUDY    39  30  70 S17G23    29.91F WCI  30
$$
MIZ001>003-009>011-084-012000-
WESTERN UPPER MICHIGAN

CITY           SKY/WX    TMP DP  RH WIND       PRES   REMARKS
IRON MOUNTAIN  MOSUNNY   50  31  48 SE13      29.87F
HOUGHTON       CLOUDY    35  30  82 E17       29.79F WCI  25
COPPER HARBOR    N/A     36  32  85 SW15G25   29.84F WCI  27
IRONWOOD       PTSUNNY   55  34  44 S14G25    29.65F
$$

ABBREVIATIONS USED IN REMARKS
   TC - TEMPERATURE IN CELSIUS
  WCI - WIND CHILL INDEX
   HX - HEAT INDEX
  VSB - VISIBILITY




USA.gov is the U.S. government's official web portal to all federal, state and local government web resources and services.